Regional Weather Roundup
Issued by NWS Upton, NY

Current Version | Previous Version | Text Only | Print | Product List | Glossary On
Versions: 1 2 3 4 5 6 7 8 9 10 11 12 13 14 15 16 17 18 19 20 21 22 23 24 25 26 27 28 29 30 31 32 33 34 35 36 37 38 39 40 41 42 43 44 45 46 47 48 49 50
000
ASUS41 KOKX 260505
RWROKX

REGIONAL WEATHER ROUNDUP
NATIONAL WEATHER SERVICE NEW YORK NY
100 AM EDT SAT JUL 26 2014

NOTE: "FAIR" INDICATES FEW OR NO CLOUDS BELOW 12,000 FEET WITH NO
SIGNIFICANT WEATHER AND/OR OBSTRUCTIONS TO VISIBILITY.

NYZ071-072-176-178-NJZ106-104-260600-
NEW YORK CITY METRO AREA


CITY           SKY/WX    TMP DP  RH WIND       PRES   REMARKS
CENTRAL PARK   CLEAR     72  60  66 SW5       30.03S
LAGUARDIA APRT MOCLDY    73  60  63 SW10      29.99F
KENNEDY INTL   PTCLDY    70  62  76 SW8       30.01F
NEWARK/LIBERTY PTCLDY    71  63  75 SW7       30.00S
BRNX BOT. GARD   N/A     73  59  60 S8        30.01F
TETERBORO      CLEAR     73  61  65 SW8       29.99S
$$

NYZ177-179-078>081-260600-
LONG ISLAND NEW YORK

CITY           SKY/WX    TMP DP  RH WIND       PRES   REMARKS
FARMINGDALE    CLEAR     69  65  86 SW5       30.01F
ISLIP          CLEAR     71  65  81 SW7       30.00S
SHIRLEY        CLEAR     69  64  84 S5        30.01F
WESTHAMPTON    CLEAR     68  65  90 SW5       30.02F
MONTAUK POINT    N/A     69  64  84 SW6       30.02F
$$

NYZ052-065-067-260600-
HUDSON VALLEY

CITY           SKY/WX    TMP DP  RH WIND       PRES   REMARKS
WHITE PLAINS   CLEAR     65  60  84 CALM      30.00F
NEWBURGH       CLEAR     61  57  88 CALM      30.01S
MONTGOMERY     CLEAR     58  56  93 CALM      30.00S
POUGHKEEPSIE   CLEAR     62  58  86 CALM      29.98F
ALBANY         PTCLDY    65  59  81 CALM      29.98S
$$

NJZ001-105-106-008-010-013-015-019>022-104-260600-
NEW JERSEY

CITY           SKY/WX    TMP DP  RH WIND       PRES   REMARKS
NEWARK/LIBERTY PTCLDY    71  63  75 SW7       30.00S
TETERBORO      CLEAR     73  61  65 SW8       29.99S
CALDWELL       CLEAR     67  59  75 CALM      30.01S
MORRISTOWN     CLEAR     63  59  88 CALM      30.01S
SOMERVILLE     NOT AVBL
LINDEN         FAIR      72  63  74 CALM      30.02S
SUSSEX         PTCLDY    60  57  89 CALM      30.01S
ANDOVER          N/A     59  58  96 CALM      30.02S
TRENTON        CLEAR     67  59  75 SW3       30.01R
MILLVILLE      PTCLDY    61  59  93 CALM      30.02S
ATLANTIC CITY  CLEAR     64  62  93 CALM      30.02S
WRIGHTSTOWN    CLEAR     64  63  96 SW5       30.01R
TOMS RIVER     CLEAR     61  57  88 CALM      30.03R
BELMAR         CLEAR     68  61  77 SW6       30.02R
$$

PAZ047>061-062-071-260600-
EASTERN PENNSYLVANIA

CITY           SKY/WX    TMP DP  RH WIND       PRES   REMARKS
PHILADELPHIA   MOCLDY    70  57  63 S6        30.02R
ALLENTOWN      PTCLDY    61  56  83 NW3       30.01S
SCRANTON       MOCLDY    61  52  72 CALM      30.02S
$$

CTZ002-004>006-009-010-012-RIZ004-006-007-MAZ004-011-015-260600-
SOUTHERN NEW ENGLAND
 IN CT

CITY           SKY/WX    TMP DP  RH WIND       PRES   REMARKS
BRADLEY INTL   CLEAR     66  58  75 S5        29.98F
HARTFORD       CLEAR     66  58  75 S5        29.99F
DANBURY        CLEAR     64  59  83 CALM      30.02F
WTRBRY/OXFORD  CLEAR     63  55  77 CALM      30.03S
BRIDGEPORT     CLEAR     72  65  78 SW8       30.00F
MERIDEN        CLEAR     61  58  90 CALM      30.00F
NEW HAVEN      CLEAR     73  64  73 SW5       30.00F
CHESTER        FAIR      66  63  88 W5        30.02F
GROTON         CLEAR     66  64  93 SW3       30.00F
WILLIMANTIC    CLEAR     61  57  87 CALM      30.01F

 IN RI

CITY           SKY/WX    TMP DP  RH WIND       PRES   REMARKS
PROVIDENCE     CLEAR     67  59  75 W8        30.00F
BLOCK ISLAND   CLEAR     68  63  83 W10       30.01F
WESTERLY       CLEAR     67  62  84 W3        30.01F

 IN MA

CITY           SKY/WX    TMP DP  RH WIND       PRES   REMARKS
BOSTON         NOT AVBL
WORCESTER      CLEAR     63  56  78 W7        30.01F
WESTFIELD      CLEAR     61  58  90 CALM      29.99S
PROVINCETOWN   CLEAR     66  63  88 SW13      29.99S
NANTUCKET      CLEAR     64  61  90 SW7       30.01F
$$

ANZ330-335-338-340-345-350-353-355-260600-
COASTAL MARINE OBSERVATIONS


STATION/POSITION TIME  SKY/WX   TEMP    WIND        PRES    VSBY  WAVE
                                AIR SEA DIR/SP/G                  HT/PER
                 (UTC)          (F)     (DEG/KT/KT) (MB)    (MI)  (FT/S)
NY HARB ENTRANCE NOT AVBL
4S FIRE IS       NOT AVBL
23SW MTP         0500            71 71              1016.1          2/ 8
HUDSON CANYON    0500            73 74  220/ 10/ 10 1016.7          2/ 7
EXECUTION ROCKS  0500            72 71  190/  8/ 12   N/A
WESTERN LI SOUND 0500            72     180/  8/ 10   N/A           0
CENTRAL LI SOUND 0400            71 71  220/ 12/ 14   N/A           2/ 4
EASTERN LI SOUND 0400            68 67  260/  8/ 10   N/A
ROBBINS REEF     0400            72     230/  8/ 11   N/A
$$


>>>>>>>>>>>>>>>>>>>>>>>>>>>> KEY <<<<<<<<<<<<<<<<<<<<<<<<<<<
>                                                          <
>     SKY/WX - SKY CONDITION/PRESENT WEATHER               <
>     TMP    - TEMPERATURE IN FAHRENHEIT                   <
>     DP     - DEWPOINT IN FAHRENHEIT                      <
>     RH     - RELATIVE HUMIDITY IN PERCENT                <
>     WIND   - DIRECTION AND SPEED IN MPH                  <
>     PRES   - MEAN SEA LEVEL PRESSURE IN INCHES OF HG     <
>     WCI    - WIND CHILL INDEX                            <
>     VSB    - VISIBILITY IN MILES                         <
>     HX     - HEAT INDEX                                  <
>     TC     - TEMPERATURE IN CELSIUS                      <
>     VRB    - VARIABLE WIND DIRECTION                     <
>                                                          <
>>>>>>>>>>>>>>>>>>>>>>>>>>>> KEY <<<<<<<<<<<<<<<<<<<<<<<<<<<





USA.gov is the U.S. government's official web portal to all federal, state and local government web resources and services.